Location: Hradec Kralove
(50.2170°N, 15.8330°E)
Time: 10:52:13
(UTC+01:00)

ISS - Pass Details

Date: 20 February 2026
Orbit: 416 x 426 km, 51.6° (Epoch: 10 March)

Event Time Altitude Azimuth Distance (km) Brightness Sun altitude
Exits shadow 04:57:52 76° 176° (S) 434 -3.8 -20.0°
Maximum altitude 04:57:56 77° 161° (SSE) 433 -3.8 -19.9°
Drops below altitude 10° 05:01:17 10° 75° (ENE) 1,495 0.2 -19.4°
Sets 05:03:22 0° 74° (ENE) 2,360 1.6 -19.1°
